Olathe, KS

1:41 AM CST on February 23, 2018 (GMT -0600)
Johnson County Executive

Weather History for KOJC - May, 2013

Change the Weather History Date:

Thursday, May 2, 2013

  Actual Average Record
Temperature  
Mean Temperature 37 °F 60 °F  
Max Temperature 42 °F 70 °F 91 °F (1968)
Min Temperature 32 °F 51 °F 32 °F (2013)
Degree Days  
Heating Degree Days 28 6  
Month to date heating degree days 32 12  
Since 1 July heating degree days 4962 4843  
Cooling Degree Days 0 1  
Month to date cooling degree days 0 2  
Year to date cooling degree days 11 20  
Moisture  
Dew Point 34 °F    
Average Humidity 93    
Maximum Humidity 100    
Minimum Humidity 85    
Precipitation  
Precipitation 0.62 in 0.19 in 1.23 in (1954)
Month to date precipitation 0.68 0.37  
Year to date precipitation 9.97 9.68  
Sea Level Pressure  
Sea Level Pressure 30.33 in    
Wind  
Wind Speed 16 mph (North)    
Max Wind Speed 29 mph    
Max Gust Speed 37 mph    
Visibility 4 miles    
Events Fog , Rain , Snow    
T = Trace of Precipitation, MM = Missing Value Source: NWS Daily Summary

Daily Weather History Graph

Daily Weather History Graph

Search for Another Location

Airport or City:

Trip Planner

Search our weather history database for the weather conditions in past years. The results will help you decide how hot, cold, wet, or windy it might be!

Date:

Astronomy

May. 02, 2013 Rise Set
Actual Time 6:19 AM CDT 8:12 PM CDT
Civil Twilight 5:50 AM CDT 8:41 PM CDT
Nautical Twilight 5:15 AM CDT 9:16 PM CDT
Astronomical Twilight 4:38 AM CDT 9:54 PM CDT
Moon 2:03 AM CDT (5/2) 1:07 PM CDT (5/2)
Length of Visible Light 14h 50m
Length of Day
13h 52m
Waning Gibbous, 47% of the Moon is Illuminated
May 2
Waning Gibbous
May 9
New
May 17
First Quarter
May 24
Full
May 31
Last Quarter

Hourly Weather History & Observations

Time (CDT) Temp. Windchill Dew Point Humidity Pressure Visibility Wind Dir Wind Speed Gust Speed Precip Events Conditions
12:53 AM 42.1 °F 33.6 °F 37.9 °F 85% 30.17 in 9.0 mi North 18.4 mph 25.3 mph 0.00 in Rain Light Rain
1:53 AM 42.1 °F 34.2 °F 37.0 °F 82% 30.19 in 9.0 mi North 16.1 mph 23.0 mph 0.00 in   Overcast
2:53 AM 41.0 °F 32.2 °F 37.9 °F 89% 30.20 in 10.0 mi North 18.4 mph 24.2 mph 0.01 in   Overcast
3:53 AM 41.0 °F 33.1 °F 37.9 °F 89% 30.22 in 4.0 mi North 15.0 mph 25.3 mph 0.04 in Rain Rain
4:53 AM 41.0 °F 31.6 °F 37.9 °F 89% 30.23 in 10.0 mi North 20.7 mph 25.3 mph 0.02 in Rain Light Rain
5:53 AM 41.0 °F 32.8 °F 37.9 °F 89% 30.25 in 10.0 mi North 16.1 mph - 0.00 in   Overcast
6:14 AM 41.0 °F 32.8 °F 37.4 °F 87% 30.24 in 10.0 mi North 16.1 mph 25.3 mph N/A   Overcast
6:53 AM 41.0 °F 32.8 °F 37.9 °F 89% 30.26 in 9.0 mi North 16.1 mph - 0.00 in Rain Light Rain
7:53 AM 41.0 °F 32.2 °F 37.9 °F 89% 30.30 in 10.0 mi North 18.4 mph 27.6 mph 0.01 in   Overcast
8:53 AM 39.0 °F 29.9 °F 37.0 °F 93% 30.33 in 4.0 mi North 17.3 mph 24.2 mph 0.00 in Rain Light Rain
9:53 AM 39.0 °F 29.3 °F 35.1 °F 86% 30.36 in 10.0 mi North 19.6 mph 35.7 mph 0.00 in   Overcast
10:00 AM 39.2 °F 29.0 °F 35.6 °F 87% 30.34 in 10.0 mi North 21.9 mph 29.9 mph N/A   Overcast
10:25 AM 39.2 °F 29.3 °F 35.6 °F 87% 30.34 in 10.0 mi North 20.7 mph 35.7 mph N/A   Overcast
10:37 AM 39.2 °F 30.5 °F 35.6 °F 87% 30.35 in 2.5 mi North 16.1 mph 32.2 mph 0.01 in Rain Light Rain
10:53 AM 37.9 °F 28.5 °F 35.1 °F 89% 30.37 in 2.5 mi North 17.3 mph 25.3 mph 0.04 in Rain Light Rain
11:17 AM 37.4 °F 27.2 °F 35.6 °F 93% 30.34 in 6.0 mi North 19.6 mph 29.9 mph 0.02 in Rain Light Rain
11:53 AM 37.9 °F 28.2 °F 35.1 °F 89% 30.37 in 10.0 mi North 18.4 mph 34.5 mph 0.02 in Rain Light Rain
12:03 PM 39.2 °F 29.8 °F 35.6 °F 87% 30.35 in 10.0 mi North 18.4 mph 29.9 mph N/A   Overcast
12:17 PM 39.2 °F 29.0 °F 35.6 °F 87% 30.34 in 10.0 mi North 21.9 mph 32.2 mph N/A   Overcast
12:53 PM 37.9 °F 27.6 °F 34.0 °F 86% 30.37 in 6.0 mi North 20.7 mph 27.6 mph 0.01 in Rain Light Rain
1:20 PM 37.4 °F 26.1 °F 35.6 °F 93% 30.32 in 1.8 mi North 24.2 mph 32.2 mph 0.06 in Rain Rain
1:25 PM 37.4 °F 27.2 °F 33.8 °F 87% 30.33 in 2.5 mi North 19.6 mph 32.2 mph 0.07 in Rain Light Rain
1:34 PM 37.4 °F 27.5 °F 33.8 °F 87% 30.34 in 2.5 mi North 18.4 mph 27.6 mph 0.09 in Rain Light Rain
1:42 PM 37.4 °F 26.9 °F 33.8 °F 87% 30.34 in 4.0 mi North 20.7 mph 31.1 mph 0.11 in Rain Rain
1:53 PM 37.0 °F 26.2 °F 34.0 °F 89% 30.36 in 4.0 mi North 21.9 mph 28.8 mph 0.12 in Rain Light Rain
2:53 PM 35.1 °F 25.9 °F 32.0 °F 89% 30.38 in 6.0 mi North 13.8 mph 25.3 mph 0.06 in Rain Light Rain
3:12 PM 33.8 °F 23.5 °F 32.0 °F 93% 30.36 in 2.0 mi North 16.1 mph - 0.01 in Rain Heavy Rain
3:14 PM 33.8 °F 23.2 °F 30.2 °F 87% 30.36 in 1.8 mi North 17.3 mph 23.0 mph 0.01 in Rain Heavy Rain
3:43 PM 33.8 °F 23.5 °F 30.2 °F 87% 30.37 in 2.0 mi North 16.1 mph 24.2 mph 0.04 in Rain Rain
3:53 PM 33.1 °F 23.9 °F 30.9 °F 92% 30.40 in 2.5 mi North 12.7 mph 23.0 mph 0.05 in Snow Light Snow
4:05 PM 33.8 °F 23.9 °F 30.2 °F 87% 30.36 in 1.2 mi North 15.0 mph 23.0 mph 0.01 in Snow Light Snow
4:17 PM 33.8 °F 23.5 °F 30.2 °F 87% 30.36 in 0.8 mi North 16.1 mph 23.0 mph 0.02 in Snow Light Snow
4:33 PM 33.8 °F 24.3 °F 30.2 °F 87% 30.36 in 1.0 mi North 13.8 mph 23.0 mph 0.04 in Snow Light Snow
4:53 PM 33.1 °F 23.0 °F 30.9 °F 92% 30.38 in 1.0 mi North 15.0 mph 25.3 mph 0.05 in Snow Light Snow
5:30 PM 33.8 °F 22.5 °F 30.2 °F 87% 30.36 in 0.5 mi North 19.6 mph 26.5 mph 0.02 in Fog , Snow Snow
5:53 PM 33.1 °F 21.9 °F 30.9 °F 92% 30.38 in 0.5 mi North 18.4 mph 34.5 mph 0.03 in Fog , Snow Snow
6:04 PM 33.8 °F 21.9 °F 30.2 °F 87% 30.35 in 1.0 mi North 21.9 mph 35.7 mph 0.01 in Snow Light Snow
6:50 PM 33.8 °F 22.5 °F - N/A% 30.35 in 0.8 mi North 19.6 mph 27.6 mph 0.04 in Snow Light Snow
6:53 PM 33.1 °F 22.2 °F - N/A% 30.38 in 0.8 mi North 17.3 mph 27.6 mph 0.04 in Snow Light Snow
7:02 PM 33.8 °F 22.5 °F 32.0 °F 93% 30.35 in 0.8 mi North 19.6 mph 28.8 mph 0.00 in Snow Light Snow
7:21 PM 33.8 °F 23.5 °F 32.0 °F 93% 30.36 in 0.5 mi North 16.1 mph 27.6 mph 0.01 in Fog , Snow Snow
7:53 PM 33.1 °F 21.5 °F 32.0 °F 96% 30.38 in 0.2 mi North 19.6 mph 26.5 mph 0.01 in Fog , Snow Heavy Snow
8:18 PM 32.0 °F 22.1 °F 32.0 °F 100% 30.35 in 0.8 mi North 13.8 mph 24.2 mph 0.01 in Snow Light Snow
8:26 PM 32.0 °F 21.6 °F 32.0 °F 100% 30.36 in 1.0 mi North 15.0 mph 23.0 mph 0.01 in Snow Light Snow
8:40 PM 32.0 °F 22.1 °F 32.0 °F 100% 30.37 in 0.8 mi North 13.8 mph 25.3 mph 0.01 in Snow Light Snow
8:53 PM 32.0 °F 21.6 °F 32.0 °F 100% 30.38 in 1.0 mi North 15.0 mph 21.9 mph 0.02 in Snow Light Snow
9:24 PM 33.8 °F 22.8 °F - N/A% 30.37 in 1.5 mi North 18.4 mph 24.2 mph 0.01 in Snow Light Snow
9:35 PM 33.8 °F 22.8 °F - N/A% 30.34 in 1.2 mi North 18.4 mph - 0.01 in Snow Light Snow
9:53 PM 33.1 °F 24.4 °F - N/A% 30.38 in 1.2 mi North 11.5 mph 19.6 mph 0.02 in Snow Light Snow
10:11 PM 33.8 °F 26.4 °F - N/A% 30.36 in 1.5 mi North 9.2 mph - 0.00 in Snow Light Snow
10:33 PM 33.8 °F 26.4 °F - N/A% 30.34 in 1.8 mi North 9.2 mph - 0.01 in Snow Light Snow
10:38 PM 33.8 °F 25.3 °F - N/A% 30.32 in 2.0 mi North 11.5 mph - 0.01 in Snow Light Snow
10:53 PM 33.1 °F 24.9 °F - N/A% 30.34 in 3.0 mi North 10.4 mph - 0.02 in Snow Light Snow
11:17 PM 33.8 °F 27.0 °F - N/A% 30.32 in 2.0 mi North 8.1 mph - 0.01 in Snow Light Snow
11:24 PM 33.8 °F 25.8 °F - N/A% 30.31 in 1.2 mi NNW 10.4 mph - 0.01 in Snow Light Snow
11:37 PM 33.8 °F 28.6 °F - N/A% 30.31 in 2.0 mi North 5.8 mph - 0.01 in Snow Light Snow
11:45 PM 33.8 °F 27.7 °F - N/A% 30.31 in 3.0 mi North 6.9 mph - 0.02 in Snow Light Snow
11:53 PM 33.1 °F 26.1 °F - N/A% 30.33 in 6.0 mi North 8.1 mph - 0.02 in   Haze